Time,TemperatureF,DewpointF,PressureIn,WindDirection,WindDirectionDegrees,WindSpeedMPH,WindSpeedGustMPH,Humidity,HourlyPrecipIn,Conditions,Clouds,dailyrainin,SoftwareType,DateUTC
2013-07-22 00:12:00,61.5,60.9,30.00,NE,45,0.0,-999.0,98,-99.99,,,0.00,Acu-Link.com,2013-07-22 04:12:00,
2013-07-22 00:27:00,61.3,60.7,30.00,NE,45,0.0,-999.0,98,-99.99,,,0.00,Acu-Link.com,2013-07-22 04:27:00,
2013-07-22 00:43:00,61.0,60.4,30.00,NNE,22,0.0,-999.0,98,-99.99,,,0.00,Acu-Link.com,2013-07-22 04:43:00,
2013-07-22 00:58:00,60.8,60.2,29.99,NNE,22,0.0,-999.0,98,-99.99,,,0.00,Acu-Link.com,2013-07-22 04:58:00,
2013-07-22 01:13:00,60.3,59.7,29.99,SSE,157,0.0,-999.0,98,-99.99,,,0.00,Acu-Link.com,2013-07-22 05:13:00,
2013-07-22 01:29:00,60.1,59.5,29.99,NE,45,0.0,-999.0,98,-99.99,,,0.00,Acu-Link.com,2013-07-22 05:29:00,
2013-07-22 01:45:00,59.9,59.3,29.99,WSW,247,0.0,-999.0,98,-99.99,,,0.00,Acu-Link.com,2013-07-22 05:45:00,
2013-07-22 02:00:00,59.7,59.1,29.98,West,270,0.0,-999.0,98,-99.99,,,0.00,Acu-Link.com,2013-07-22 06:00:00,
2013-07-22 02:15:00,59.5,58.9,29.99,WSW,247,0.0,-999.0,98,-99.99,,,0.00,Acu-Link.com,2013-07-22 06:15:00,
2013-07-22 02:30:00,59.2,58.6,29.98,NW,315,0.0,-999.0,98,-99.99,,,0.00,Acu-Link.com,2013-07-22 06:30:00,
2013-07-22 02:45:00,59.0,58.4,29.99,SE,135,0.0,-999.0,98,-99.99,,,0.00,Acu-Link.com,2013-07-22 06:45:00,
2013-07-22 03:01:00,59.0,58.4,29.99,NNE,22,0.0,-999.0,98,-99.99,,,0.00,Acu-Link.com,2013-07-22 07:01:00,
2013-07-22 03:16:00,59.0,58.4,29.99,SE,135,0.0,-999.0,98,-99.99,,,0.00,Acu-Link.com,2013-07-22 07:16:00,
2013-07-22 03:31:00,59.0,58.4,29.99,NNW,337,0.0,-999.0,98,-99.99,,,0.00,Acu-Link.com,2013-07-22 07:31:00,
2013-07-22 03:46:00,59.0,58.4,29.99,NE,45,0.0,-999.0,98,-99.99,,,0.00,Acu-Link.com,2013-07-22 07:46:00,
2013-07-22 04:02:00,59.2,58.6,29.99,NE,45,0.0,-999.0,98,-99.99,,,0.00,Acu-Link.com,2013-07-22 08:02:00,
2013-07-22 04:18:00,59.2,58.6,29.99,NE,45,0.0,-999.0,98,-99.99,,,0.00,Acu-Link.com,2013-07-22 08:18:00,
2013-07-22 04:33:00,59.4,58.8,29.99,NE,45,0.0,-999.0,98,-99.99,,,0.00,Acu-Link.com,2013-07-22 08:33:00,
2013-07-22 04:48:00,59.5,58.9,29.99,NNE,22,0.0,-999.0,98,-99.99,,,0.00,Acu-Link.com,2013-07-22 08:48:00,
2013-07-22 05:03:00,59.7,59.1,29.99,South,180,0.0,-999.0,98,-99.99,,,0.00,Acu-Link.com,2013-07-22 09:03:00,
2013-07-22 05:19:00,60.1,59.5,30.00,SE,135,0.0,-999.0,98,-99.99,,,0.00,Acu-Link.com,2013-07-22 09:19:00,
2013-07-22 05:34:00,60.1,59.5,30.00,NNE,22,0.0,-999.0,98,-99.99,,,0.00,Acu-Link.com,2013-07-22 09:34:00,
2013-07-22 05:49:00,60.3,59.7,30.01,ESE,112,0.0,-999.0,98,-99.99,,,0.00,Acu-Link.com,2013-07-22 09:49:00,
2013-07-22 06:04:00,60.3,59.7,30.01,NNE,22,0.0,-999.0,98,-99.99,,,0.00,Acu-Link.com,2013-07-22 10:04:00,
2013-07-22 06:20:00,60.6,60.0,30.01,ESE,112,0.0,-999.0,98,-99.99,,,0.00,Acu-Link.com,2013-07-22 10:20:00,
2013-07-22 06:35:00,60.8,60.2,30.01,East,90,0.0,-999.0,98,-99.99,,,0.00,Acu-Link.com,2013-07-22 10:35:00,
2013-07-22 06:50:00,61.0,60.4,30.01,ENE,67,0.0,-999.0,98,-99.99,,,0.00,Acu-Link.com,2013-07-22 10:50:00,
2013-07-22 07:06:00,61.5,60.9,30.01,ESE,112,0.0,-999.0,98,-99.99,,,0.00,Acu-Link.com,2013-07-22 11:06:00,
2013-07-22 07:21:00,61.9,61.3,30.02,NE,45,0.0,-999.0,98,-99.99,,,0.00,Acu-Link.com,2013-07-22 11:21:00,
2013-07-22 07:36:00,62.1,61.5,30.03,North,0,2.2,-999.0,98,-99.99,,,0.00,Acu-Link.com,2013-07-22 11:36:00,
2013-07-22 07:51:00,61.9,61.3,30.02,NNE,22,1.7,-999.0,98,-99.99,,,0.03,Acu-Link.com,2013-07-22 11:51:00,
2013-07-22 08:07:00,61.7,61.1,30.02,ENE,67,0.0,-999.0,98,-99.99,,,0.12,Acu-Link.com,2013-07-22 12:07:00,
2013-07-22 08:22:00,61.7,61.1,30.03,SW,225,0.0,-999.0,98,-99.99,,,0.12,Acu-Link.com,2013-07-22 12:22:00,
2013-07-22 08:37:00,62.1,61.5,30.02,NE,45,0.0,-999.0,98,-99.99,,,0.12,Acu-Link.com,2013-07-22 12:37:00,
2013-07-22 08:53:00,62.4,61.8,30.03,ESE,112,0.0,-999.0,98,-99.99,,,0.13,Acu-Link.com,2013-07-22 12:53:00,
2013-07-22 09:08:00,62.4,61.8,30.02,WNW,292,0.0,-999.0,98,-99.99,,,0.14,Acu-Link.com,2013-07-22 13:08:00,
2013-07-22 09:23:00,62.8,62.2,30.02,NE,45,1.7,-999.0,98,-99.99,,,0.15,Acu-Link.com,2013-07-22 13:23:00,
2013-07-22 09:39:00,63.3,62.7,30.03,NE,45,0.0,-999.0,98,-99.99,,,0.15,Acu-Link.com,2013-07-22 13:39:00,
2013-07-22 09:54:00,63.3,62.7,30.03,NNE,22,0.0,-999.0,98,-99.99,,,0.16,Acu-Link.com,2013-07-22 13:54:00,
2013-07-22 10:09:00,63.5,62.9,30.02,NNE,22,0.0,-999.0,98,-99.99,,,0.19,Acu-Link.com,2013-07-22 14:09:00,
2013-07-22 10:25:00,63.9,63.3,30.02,WNW,292,0.0,-999.0,98,-99.99,,,0.20,Acu-Link.com,2013-07-22 14:25:00,
2013-07-22 10:40:00,64.6,64.0,30.02,NNE,22,0.0,-999.0,98,-99.99,,,0.20,Acu-Link.com,2013-07-22 14:40:00,
2013-07-22 10:55:00,65.7,65.1,30.02,ENE,67,0.0,-999.0,98,-99.99,,,0.20,Acu-Link.com,2013-07-22 14:55:00,
2013-07-22 11:11:00,66.9,66.3,30.02,ESE,112,0.0,-999.0,98,-99.99,,,0.20,Acu-Link.com,2013-07-22 15:11:00,
2013-07-22 11:26:00,67.3,66.7,30.02,North,0,2.7,-999.0,98,-99.99,,,0.20,Acu-Link.com,2013-07-22 15:26:00,
2013-07-22 11:41:00,67.6,67.0,30.01,NNW,337,2.2,-999.0,98,-99.99,,,0.20,Acu-Link.com,2013-07-22 15:41:00,
2013-07-22 11:57:00,68.5,67.6,30.02,NE,45,0.0,-999.0,97,-99.99,,,0.20,Acu-Link.com,2013-07-22 15:57:00,
2013-07-22 12:12:00,68.0,66.8,30.01,East,90,2.7,-999.0,96,-99.99,,,0.20,Acu-Link.com,2013-07-22 16:12:00,
2013-07-22 12:27:00,67.5,66.6,30.01,North,0,3.7,-999.0,97,-99.99,,,0.20,Acu-Link.com,2013-07-22 16:27:00,
2013-07-22 12:43:00,69.3,68.1,30.01,East,90,3.2,-999.0,96,-99.99,,,0.20,Acu-Link.com,2013-07-22 16:43:00,
2013-07-22 12:58:00,69.6,67.8,30.00,NE,45,1.7,-999.0,94,-99.99,,,0.20,Acu-Link.com,2013-07-22 16:58:00,
2013-07-22 13:13:00,69.6,67.5,30.00,NNE,22,4.2,-999.0,93,-99.99,,,0.20,Acu-Link.com,2013-07-22 17:13:00,
2013-07-22 13:28:00,68.9,67.4,30.00,NE,45,2.7,-999.0,95,-99.99,,,0.20,Acu-Link.com,2013-07-22 17:28:00,
2013-07-22 13:44:00,69.6,67.8,29.99,NNE,22,1.1,-999.0,94,-99.99,,,0.20,Acu-Link.com,2013-07-22 17:44:00,
2013-07-22 13:59:00,70.3,68.2,29.99,NNE,22,2.2,-999.0,93,-99.99,,,0.20,Acu-Link.com,2013-07-22 17:59:00,
2013-07-22 14:14:00,70.9,67.8,29.98,NNE,22,2.2,-999.0,90,-99.99,,,0.20,Acu-Link.com,2013-07-22 18:14:00,
2013-07-22 14:45:00,72.9,68.8,29.97,North,0,2.7,-999.0,87,-99.99,,,0.20,Acu-Link.com,2013-07-22 18:45:00,
2013-07-22 15:01:00,72.3,68.2,29.97,NNW,337,2.7,-999.0,87,-99.99,,,0.20,Acu-Link.com,2013-07-22 19:01:00,
2013-07-22 15:16:00,73.2,69.4,29.96,NNE,22,3.2,-999.0,88,-99.99,,,0.20,Acu-Link.com,2013-07-22 19:16:00,
2013-07-22 15:31:00,72.1,68.0,29.96,North,0,2.7,-999.0,87,-99.99,,,0.20,Acu-Link.com,2013-07-22 19:31:00,
2013-07-22 15:46:00,72.9,69.1,29.96,NW,315,1.7,-999.0,88,-99.99,,,0.20,Acu-Link.com,2013-07-22 19:46:00,
2013-07-22 16:01:00,73.2,68.8,29.96,ENE,67,1.7,-999.0,86,-99.99,,,0.20,Acu-Link.com,2013-07-22 20:01:00,
2013-07-22 16:17:00,73.8,69.7,29.95,NE,45,1.7,-999.0,87,-99.99,,,0.20,Acu-Link.com,2013-07-22 20:17:00,
2013-07-22 16:32:00,72.5,68.1,29.94,NNW,337,1.7,-999.0,86,-99.99,,,0.20,Acu-Link.com,2013-07-22 20:32:00,
2013-07-22 16:47:00,72.7,68.6,29.94,NW,315,0.0,-999.0,87,-99.99,,,0.20,Acu-Link.com,2013-07-22 20:47:00,
2013-07-22 17:02:00,72.3,68.2,29.93,North,0,2.2,-999.0,87,-99.99,,,0.20,Acu-Link.com,2013-07-22 21:02:00,
2013-07-22 17:18:00,72.9,68.5,29.93,NNE,22,3.7,-999.0,86,-99.99,,,0.20,Acu-Link.com,2013-07-22 21:18:00,
2013-07-22 17:33:00,73.0,68.9,29.92,North,0,3.7,-999.0,87,-99.99,,,0.20,Acu-Link.com,2013-07-22 21:33:00,
2013-07-22 17:48:00,73.0,68.9,29.91,NNE,22,3.2,-999.0,87,-99.99,,,0.20,Acu-Link.com,2013-07-22 21:48:00,
2013-07-22 18:04:00,73.4,69.3,29.91,NNE,22,2.2,-999.0,87,-99.99,,,0.20,Acu-Link.com,2013-07-22 22:04:00,
2013-07-22 18:19:00,73.0,68.6,29.92,ENE,67,1.1,-999.0,86,-99.99,,,0.20,Acu-Link.com,2013-07-22 22:19:00,
2013-07-22 18:34:00,72.9,68.8,29.91,NNW,337,2.2,-999.0,87,-99.99,,,0.20,Acu-Link.com,2013-07-22 22:34:00,
2013-07-22 18:49:00,72.1,68.7,29.91,NNE,22,2.7,-999.0,89,-99.99,,,0.20,Acu-Link.com,2013-07-22 22:49:00,
2013-07-22 19:05:00,71.6,68.8,29.92,North,0,2.7,-999.0,91,-99.99,,,0.20,Acu-Link.com,2013-07-22 23:05:00,
2013-07-22 19:20:00,71.2,68.4,29.91,NNE,22,0.0,-999.0,91,-99.99,,,0.20,Acu-Link.com,2013-07-22 23:20:00,
2013-07-22 19:51:00,70.5,68.7,29.91,West,270,1.7,-999.0,94,-99.99,,,0.20,Acu-Link.com,2013-07-22 23:51:00,
2013-07-22 20:06:00,70.3,68.5,29.90,North,0,1.7,-999.0,94,-99.99,,,0.20,Acu-Link.com,2013-07-23 00:06:00,
2013-07-22 20:22:00,70.2,68.7,29.90,NW,315,2.7,-999.0,95,-99.99,,,0.20,Acu-Link.com,2013-07-23 00:22:00,
2013-07-22 20:37:00,70.0,68.8,29.91,NNW,337,1.7,-999.0,96,-99.99,,,0.20,Acu-Link.com,2013-07-23 00:37:00,
2013-07-22 20:52:00,69.8,68.6,29.91,North,0,2.7,-999.0,96,-99.99,,,0.20,Acu-Link.com,2013-07-23 00:52:00,
2013-07-22 21:07:00,69.6,68.4,29.91,NE,45,0.0,-999.0,96,-99.99,,,0.20,Acu-Link.com,2013-07-23 01:07:00,
2013-07-22 21:23:00,69.4,68.2,29.92,NE,45,0.0,-999.0,96,-99.99,,,0.20,Acu-Link.com,2013-07-23 01:23:00,
2013-07-22 21:38:00,69.3,68.4,29.92,NNW,337,3.2,-999.0,97,-99.99,,,0.20,Acu-Link.com,2013-07-23 01:38:00,
2013-07-22 21:53:00,68.9,68.0,29.92,NE,45,0.0,-999.0,97,-99.99,,,0.20,Acu-Link.com,2013-07-23 01:53:00,
2013-07-22 22:09:00,68.5,67.3,29.91,NE,45,0.0,-999.0,96,-99.99,,,0.20,Acu-Link.com,2013-07-23 02:09:00,
2013-07-22 22:24:00,68.0,66.8,29.91,ESE,112,0.0,-999.0,96,-99.99,,,0.20,Acu-Link.com,2013-07-23 02:24:00,
2013-07-22 22:39:00,67.8,66.6,29.91,NNE,22,0.0,-999.0,96,-99.99,,,0.20,Acu-Link.com,2013-07-23 02:39:00,
2013-07-22 22:55:00,67.5,66.0,29.91,SSE,157,1.1,-999.0,95,-99.99,,,0.20,Acu-Link.com,2013-07-23 02:55:00,
2013-07-22 23:10:00,67.1,65.9,29.90,North,0,0.0,-999.0,96,-99.99,,,0.20,Acu-Link.com,2013-07-23 03:10:00,
2013-07-22 23:25:00,66.9,65.7,29.90,NNE,22,0.0,-999.0,96,-99.99,,,0.20,Acu-Link.com,2013-07-23 03:25:00,
2013-07-22 23:41:00,66.6,65.4,29.89,NW,315,1.7,-999.0,96,-99.99,,,0.20,Acu-Link.com,2013-07-23 03:41:00,
2013-07-22 23:56:00,66.0,64.8,29.89,North,0,2.2,-999.0,96,-99.99,,,0.20,Acu-Link.com,2013-07-23 03:56:00,